This demonstration page uses our WeatherBlox Daily Observations layout. Learn more.

Left ArrowRight Arrow

38.88101, -77.10428

Hourly Observations for December 23, 2015

Temp ( °F °C ) Dew Point ( °F °C ) Humidity (%) Winds ( mph kmh ) Pressure ( in mb ) Visibility ( mi km ) Precip ( " mm )
12:47 am 00:47 Cloudy 59 15 57 14 94 94 SSW 8 13 30.09 1019 10 16 N/A
12:52 am 00:52 Cloudy 58 14.4 56 13.3 93 93 SSW 6 9 30.09 1019 10 16 N/A
1:52 am 01:52 Cloudy 57 13.9 56 13.3 96 96 S 5 7 30.09 1019 7 11 N/A
2:52 am 02:52 Cloudy with Fog 57 13.9 56 13.3 96 96 S 5 7 30.09 1019 7 11 N/A
3:35 am 03:35 Cloudy with Fog 56 13.3 55 12.8 97 97 S 7 11 30.09 1019 3 4 N/A
3:41 am 03:41 Cloudy with Fog 55 12.8 55 12.8 100 100 SE 3 6 30.09 1019 2 3 N/A
3:52 am 03:52 Cloudy with Mist and Fog 57 13.9 56 13.3 96 96 ESE 3 6 30.08 1019 2 2 N/A
3:56 am 03:56 Cloudy with Mist and Fog 57 14 55 13 94 94 ESE 3 6 30.09 1019 1 2 N/A
4:00 am 04:00 Mostly Cloudy with Mist and Fog 57 14 55 13 94 94 ESE 3 6 30.09 1019 1 1 N/A
4:04 am 04:04 Mostly Cloudy with Fog 55 13 55 13 100 100 N N/A 30.09 1019 0 0 N/A
4:31 am 04:31 Mostly Cloudy with Fog 56 13.3 56 13.3 100 100 N N/A 30.09 1019 0 0 N/A
4:52 am 04:52 Mostly Cloudy with Mist and Fog 56 13.3 55 12.8 97 97 E 3 6 30.07 1018 2 3 N/A
4:58 am 04:58 Cloudy with Mist and Fog 55 13 55 13 100 100 ESE 3 6 30.06 1018 3 4 N/A
5:03 am 05:03 Cloudy with Mist and Fog 55 13 55 13 100 100 SE 3 6 30.06 1018 3 5 N/A
5:35 am 05:35 Cloudy with Light Rain 57 13.9 57 13.9 100 100 N N/A 30.09 1019 3 4 N/A
5:52 am 05:52 Cloudy with Light Rain 58 14.4 57 13.9 97 97 N N/A 30.09 1019 2 3 N/A
6:11 am 06:11 Cloudy with Mist and Fog 57 13.9 57 13.9 100 100 N 3 6 30.09 1019 1 2 N/A
6:36 am 06:36 Mostly Cloudy with Fog 57 14 57 14 100 100 NNE 5 7 30.09 1019 1 1 N/A
6:52 am 06:52 Mostly Cloudy with Fog 57 13.9 57 13.9 100 100 NE 3 6 30.09 1019 1 1 N/A
7:18 am 07:18 Mostly Cloudy with Fog 57 14 55 13 94 94 NE 6 9 30.09 1019 0 0 N/A
7:52 am 07:52 Mostly Cloudy with Fog 57 13.9 57 13.9 100 100 ENE 7 11 30.08 1019 0 0 N/A
8:14 am 08:14 Mostly Cloudy with Light Rain 57 14 57 14 100 100 ENE 8 13 30.09 1019 1 2 N/A
8:38 am 08:38 Cloudy with Fog 57 14 57 14 100 100 NE 7 11 30.09 1019 1 1 N/A
8:48 am 08:48 Cloudy with Light Rain 57 14 57 14 100 100 NE 6 9 30.09 1019 1 2 N/A
8:52 am 08:52 Cloudy with Light Rain 57 13.9 57 13.9 100 100 NE 5 7 30.09 1019 1 2 0.02 0.51
8:59 am 08:59 Cloudy with Light Rain 57 13.9 57 13.9 100 100 N N/A 30.09 1019 1 1 N/A
9:07 am 09:07 Cloudy with Light Rain 57 13.9 57 13.9 100 100 N N/A 30.09 1019 1 1 N/A
9:10 am 09:10 Cloudy with Light Rain 57 14 57 14 100 100 NE 3 6 30.09 1019 1 1 N/A
9:19 am 09:19 Cloudy with Light Rain 57 13.9 57 13.9 100 100 ENE 7 11 30.09 1019 1 1 N/A
9:31 am 09:31 Cloudy with Light Rain 56 13.3 56 13.3 100 100 E 6 9 30.09 1019 1 2 0.01 0.25
9:52 am 09:52 Cloudy with Light Rain 57 13.9 57 13.9 100 100 E 6 9 30.07 1018 1 2 0.02 0.51
10:01 am 10:01 Cloudy with Light Rain 58 14.4 58 14.4 100 100 ESE 7 11 30.06 1018 3 4 0.01 0.25
10:17 am 10:17 Cloudy with Light Rain 59 15 58 14.4 96 96 ESE 5 7 30.06 1018 3 5 0.03 0.76
10:52 am 10:52 Cloudy with Light Rain 59 15 58 14.4 96 96 SE 7 11 30.03 1017 5 8 0.04 1.02
11:12 am 11:12 Cloudy with Light Rain 61 16 59 15 94 94 SSE 5 7 30.03 1017 3 4 N/A
11:23 am 11:23 Cloudy with Light Rain 60 15.6 60 15.6 100 100 N N/A 30.03 1017 3 5 0.01 0.25
11:30 am 11:30 Cloudy with Light Rain 61 16 61 16 100 100 S 3 6 30.00 1016 2 2 N/A
11:40 am 11:40 Cloudy with Light Rain 61 16 61 16 100 100 N N/A 30.00 1016 4 6 N/A
11:52 am 11:52 Cloudy with Mist and Fog 61 16.1 60 15.6 97 97 S 3 6 29.99 1016 5 8 0.04 1.02
12:35 pm 12:35 Cloudy with Rain 62 16.7 61 16.1 96 96 SSE 7 11 29.97 1015 3 5 0.04 1.02
12:52 pm 12:52 Cloudy with Light Rain 62 16.7 61 16.1 96 96 S 6 9 29.95 1014 5 8 0.07 1.78
1:03 pm 13:03 Cloudy with Light Rain 63 17 61 16 94 94 S 7 11 29.94 1014 5 8 N/A
1:52 pm 13:52 Cloudy with Light Rain 63 17.2 62 16.7 97 97 S 8 13 29.92 1013 7 11 0.06 1.52
2:16 pm 14:16 Cloudy with Light Rain 61 16 61 16 100 100 SSE 9 15 29.91 1013 8 13 N/A
2:44 pm 14:44 Cloudy with Light Rain 63 17 63 17 100 100 SSE 8 13 29.91 1013 3 5 N/A
2:52 pm 14:52 Cloudy with Light Rain 63 17.2 63 17.2 100 100 SSE 8 13 29.90 1013 5 8 0.03 0.76
3:12 pm 15:12 Cloudy with Light Rain 63 17 63 17 100 100 SSE 6 9 29.88 1012 7 11 N/A
3:29 pm 15:29 Cloudy with Light Rain 63 17.2 62 16.7 97 97 S 6 9 29.91 1013 10 16 0.02 0.51
3:38 pm 15:38 Cloudy with Rain 64 18 63 17 94 94 S 6 9 29.91 1013 5 8 N/A
3:52 pm 15:52 Cloudy with Rain 63 17.2 63 17.2 100 100 SE 5 7 29.88 1012 3 4 0.08 2.03
3:57 pm 15:57 Cloudy with Rain 63 17.2 63 17.2 100 100 SE 5 7 29.88 1012 2 2 0.03 0.76
4:09 pm 16:09 Cloudy with Rain 63 17.2 62 16.7 97 97 ESE 3 6 29.88 1012 3 4 0.05 1.27
4:29 pm 16:29 Cloudy with Heavy Rain 64 17.8 63 17.2 96 96 S 5 7 29.88 1012 2 2 0.20 5.08
4:36 pm 16:36 Cloudy with Heavy Rain 65 18.3 64 17.8 97 97 S 6 9 29.88 1012 1 2 0.39 9.91
4:42 pm 16:42 Cloudy with Rain 64 18 64 18 100 100 SSW 6 9 29.88 1012 3 5 N/A
4:52 pm 16:52 Cloudy with Heavy Rain 65 18.3 64 17.8 97 97 N N/A 29.86 1011 2 3 0.51 12.95
4:54 pm 16:54 Cloudy with Heavy Rain 64 18 64 18 100 100 SSE 3 6 29.88 1012 2 3 N/A
5:06 pm 17:06 Cloudy with Heavy Rain 65 18.3 64 17.8 97 97 VRB 6 9 29.88 1012 1 1 0.25 6.35
5:27 pm 17:27 Cloudy with Light Rain 63 17.2 63 17.2 100 100 SSE 8 13 29.85 1011 1 2 0.70 17.78
5:29 pm 17:29 Cloudy with Light Rain 64 17.8 63 17.2 96 96 SSE 9 15 29.85 1011 3 5 0.70 17.78
5:31 pm 17:31 Cloudy with Light Rain 64 17.8 63 17.2 96 96 SSE 9 15 29.85 1011 5 8 0.70 17.78
5:52 pm 17:52 Cloudy with Light Rain 64 17.8 63 17.2 96 96 S 9 15 29.86 1011 4 6 0.71 18.03
5:59 pm 17:59 Cloudy with Light Rain 64 17.8 64 17.8 100 100 S 9 15 29.85 1011 6 10 N/A
6:11 pm 18:11 Cloudy 63 17.2 63 17.2 100 100 S 9 15 29.85 1011 7 11 N/A
6:52 pm 18:52 Cloudy with Light Rain 66 18.9 65 18.3 96 96 S 7 11 29.86 1011 4 6 N/A
6:56 pm 18:56 Cloudy with Light Rain 64 18 64 18 100 100 S 9 15 29.85 1011 7 11 N/A
7:07 pm 19:07 Cloudy with Light Rain 63 17 61 16 94 94 S 14 22 29.85 1011 7 11 N/A
7:09 pm 19:09 Cloudy with Light Rain 62 16.7 62 16.7 100 100 S 14 22 29.85 1011 7 11 0.01 0.25
7:14 pm 19:14 Cloudy with Light Rain 64 18 63 17 94 94 S 12 19 29.88 1012 7 11 N/A
7:52 pm 19:52 Cloudy with Light Rain 64 17.8 63 17.2 96 96 S 10 17 29.83 1010 9 14 0.06 1.52
8:29 pm 20:29 Cloudy 63 17.2 62 16.7 97 97 S 12 19 29.83 1010 10 16 0.03 0.76
8:52 pm 20:52 Cloudy 64 17.8 63 17.2 96 96 S 10 17 29.82 1010 10 16 0.03 0.76
9:52 pm 21:52 Cloudy 62 16.7 61 16.1 96 96 S 9 15 29.83 1010 10 16 N/A
10:19 pm 22:19 Cloudy 63 17.2 62 16.7 97 97 S 9 15 29.83 1010 10 16 N/A
10:52 pm 22:52 Cloudy 66 18.9 64 17.8 93 93 SW 9 15 29.85 1011 10 16 N/A
11:00 pm 23:00 Cloudy 66 19 64 18 94 94 SSW 9 15 29.85 1011 10 16 N/A
11:33 pm 23:33 Cloudy 63 17.2 62 16.7 97 97 S 9 15 29.85 1011 10 16 N/A
11:52 pm 23:52 Cloudy 64 17.8 63 17.2 96 96 S 8 13 29.86 1011 10 16 N/A

Powered by AerisWeather